• In Netherlands
  • List of Countries
  • For 7 days
  • Water Temperature
  • Satellite Maps
  • Weather Map
  • Weather Widgets
  • user-avatar
    Login

    Hourly Weather Mendoza

    Today, 24 June, Saturday

    Time Temperature Precipitation Wind Pressure Humidity
    00:00 +9°C° 0 mm 3 mps 696 mmHg 80%
    01:00 +9°C° 0 mm 3 mps 695 mmHg 78%
    02:00 +9°C° 0 mm 3 mps 695 mmHg 77%
    03:00 +8°C° 0 mm 3 mps 695 mmHg 76%
    04:00 +8°C° 0 mm 3 mps 694 mmHg 75%
    05:00 +8°C° 0 mm 3 mps 694 mmHg 76%
    06:00 +8°C° 0 mm 3 mps 694 mmHg 76%
    07:00 +7°C° 0 mm 2 mps 694 mmHg 77%
    08:00 +9°C° 0 mm 3 mps 694 mmHg 71%
    09:00 +11°C° 0 mm 3 mps 694 mmHg 65%
    10:00 +12°C° 0 mm 3 mps 695 mmHg 59%
    11:00 +13°C° 0 mm 3 mps 694 mmHg 55%
    12:00 +14°C° 0 mm 3 mps 693 mmHg 52%
    13:00 +16°C° 0 mm 3 mps 693 mmHg 48%
    14:00 +16°C° 0 mm 3 mps 692 mmHg 50%
    15:00 +14°C° 0 mm 3 mps 692 mmHg 52%
    16:00 +14°C° 0 mm 2 mps 692 mmHg 54%
    17:00 +12°C° 0 mm 3 mps 692 mmHg 57%
    18:00 +11°C° 0 mm 3 mps 692 mmHg 60%
    19:00 +10°C° 0 mm 3 mps 692 mmHg 64%
    20:00 +10°C° 0 mm 3 mps 692 mmHg 64%
    21:00 +10°C° 0 mm 3 mps 692 mmHg 64%
    22:00 +10°C° 0 mm 3 mps 692 mmHg 64%
    23:00 +9°C° 0 mm 3 mps 692 mmHg 66%

    Tomorrow, 25 June, Sunday

    Time Temperature Precipitation Wind Pressure Humidity
    00:00 +9°C° 0 mm 3 mps 692 mmHg 68%
    01:00 +9°C° 0 mm 3 mps 692 mmHg 69%
    02:00 +9°C° 0 mm 3 mps 691 mmHg 69%
    03:00 +9°C° 0 mm 3 mps 691 mmHg 70%
    04:00 +9°C° 0 mm 3 mps 691 mmHg 70%
    05:00 +9°C° 0 mm 3 mps 691 mmHg 70%
    06:00 +9°C° 0 mm 3 mps 692 mmHg 70%
    07:00 +9°C° 0 mm 3 mps 692 mmHg 70%
    08:00 +11°C° 0 mm 3 mps 692 mmHg 65%
    09:00 +13°C° 0 mm 3 mps 692 mmHg 61%
    10:00 +16°C° 0 mm 3 mps 693 mmHg 57%
    11:00 +17°C° 0 mm 4 mps 692 mmHg 52%
    12:00 +18°C° 0 mm 4 mps 692 mmHg 47%
    13:00 +19°C° 0 mm 4 mps 692 mmHg 43%
    14:00 +18°C° 0 mm 4 mps 692 mmHg 45%
    15:00 +18°C° 0 mm 3 mps 692 mmHg 47%
    16:00 +17°C° 0 mm 3 mps 691 mmHg 49%
    17:00 +16°C° 0 mm 3 mps 692 mmHg 53%
    18:00 +14°C° 0 mm 3 mps 692 mmHg 56%
    19:00 +13°C° 0 mm 4 mps 692 mmHg 60%
    20:00 +12°C° 0 mm 4 mps 693 mmHg 59%
    21:00 +12°C° 0 mm 4 mps 693 mmHg 59%
    22:00 +12°C° 0 mm 4 mps 693 mmHg 58%
    23:00 +11°C° 0 mm 4 mps 693 mmHg 61%

    Day after tomorrow, 26 June, Monday

    Time Temperature Precipitation Wind Pressure Humidity
    00:00 +11°C° 0 mm 4 mps 693 mmHg 63%
    01:00 +11°C° 0 mm 4 mps 693 mmHg 66%
    02:00 +11°C° 0 mm 4 mps 693 mmHg 67%
    03:00 +11°C° 0 mm 4 mps 693 mmHg 67%
    04:00 +11°C° 0 mm 4 mps 693 mmHg 68%
    05:00 +11°C° 0 mm 4 mps 693 mmHg 70%
    06:00 +11°C° 0 mm 4 mps 693 mmHg 72%
    07:00 +10°C° 0 mm 4 mps 693 mmHg 74%
    08:00 +12°C° 0 mm 4 mps 694 mmHg 71%
    09:00 +13°C° 0 mm 5 mps 694 mmHg 67%
    10:00 +14°C° 0 mm 5 mps 694 mmHg 64%
    11:00 +14°C° 0 mm 5 mps 694 mmHg 64%
    12:00 +15°C° 0 mm 5 mps 694 mmHg 64%
    13:00 +15°C° 0 mm 5 mps 694 mmHg 63%
    14:00 +15°C° 0 mm 5 mps 694 mmHg 66%
    15:00 +14°C° 0 mm 4 mps 694 mmHg 68%
    16:00 +14°C° 0 mm 4 mps 694 mmHg 70%
    17:00 +13°C° 0 mm 3 mps 694 mmHg 72%
    18:00 +13°C° 0 mm 3 mps 694 mmHg 73%
    19:00 +13°C° 0 mm 2 mps 695 mmHg 75%
    20:00 +13°C° 0.1 mm 2 mps 695 mmHg 74%
    21:00 +13°C° 0.1 mm 2 mps 695 mmHg 73%
    22:00 +12°C° 0.1 mm 2 mps 695 mmHg 72%
    23:00 +12°C° 0.1 mm 2 mps 695 mmHg 71%

    27 June, Tuesday

    Time Temperature Precipitation Wind Pressure Humidity
    00:00 +12°C° 0.1 mm 2 mps 695 mmHg 71%
    01:00 +10°C° 0.1 mm 2 mps 695 mmHg 70%
    02:00 +10°C° 0 mm 2 mps 696 mmHg 73%
    03:00 +9°C° 0 mm 2 mps 696 mmHg 76%
    04:00 +9°C° 0 mm 2 mps 696 mmHg 79%
    05:00 +8°C° 0 mm 2 mps 697 mmHg 80%
    06:00 +8°C° 0 mm 2 mps 697 mmHg 81%
    07:00 +8°C° 0 mm 2 mps 698 mmHg 83%
    08:00 +9°C° 0 mm 2 mps 698 mmHg 78%
    09:00 +10°C° 0 mm 3 mps 699 mmHg 73%
    10:00 +12°C° 0 mm 3 mps 699 mmHg 68%
    11:00 +12°C° 0 mm 3 mps 699 mmHg 66%
    12:00 +12°C° 0 mm 3 mps 698 mmHg 64%
    13:00 +13°C° 0 mm 3 mps 698 mmHg 63%
    14:00 +14°C° 0 mm 2 mps 698 mmHg 65%
    15:00 +13°C° 0 mm 2 mps 699 mmHg 68%
    16:00 +13°C° 0 mm 2 mps 699 mmHg 71%
    17:00 +12°C° 0 mm 2 mps 699 mmHg 75%
    18:00 +10°C° 0 mm 2 mps 700 mmHg 80%
    19:00 +9°C° 0 mm 2 mps 700 mmHg 85%
    20:00 +8°C° 0 mm 2 mps 700 mmHg 85%
    21:00 +8°C° 0 mm 2 mps 700 mmHg 86%
    22:00 +8°C° 0 mm 2 mps 701 mmHg 86%
    23:00 +8°C° 0 mm 2 mps 701 mmHg 87%

    28 June, Wednesday

    Time Temperature Precipitation Wind Pressure Humidity
    00:00 +7°C° 0 mm 2 mps 700 mmHg 87%
    01:00 +8°C° 0 mm 1 mps 700 mmHg 88%
    02:00 +8°C° 0 mm 1 mps 700 mmHg 87%
    03:00 +7°C° 0 mm 1 mps 700 mmHg 87%
    04:00 +7°C° 0 mm 1 mps 699 mmHg 87%
    05:00 +7°C° 0 mm 1 mps 700 mmHg 87%
    06:00 +6°C° 0 mm 1 mps 700 mmHg 86%
    07:00 +6°C° 0 mm 1 mps 700 mmHg 86%
    08:00 +8°C° 0 mm 1 mps 700 mmHg 77%
    09:00 +9°C° 0 mm 2 mps 700 mmHg 68%
    10:00 +12°C° 0 mm 2 mps 700 mmHg 59%
    11:00 +13°C° 0 mm 2 mps 700 mmHg 54%
    12:00 +14°C° 0 mm 2 mps 700 mmHg 50%
    13:00 +15°C° 0 mm 2 mps 699 mmHg 45%
    14:00 +15°C° 0 mm 2 mps 699 mmHg 48%
    15:00 +14°C° 0 mm 2 mps 699 mmHg 50%
    16:00 +14°C° 0 mm 2 mps 700 mmHg 52%
    17:00 +12°C° 0 mm 1 mps 700 mmHg 56%
    18:00 +11°C° 0 mm 1 mps 700 mmHg 61%
    19:00 +10°C° 0 mm 1 mps 700 mmHg 65%
    20:00 +10°C° 0 mm 1 mps 700 mmHg 64%
    21:00 +9°C° 0 mm 1 mps 700 mmHg 63%
    22:00 +9°C° 0 mm 1 mps 701 mmHg 63%
    23:00 +9°C° 0 mm 1 mps 700 mmHg 61%

    29 June, Thursday

    Time Temperature Precipitation Wind Pressure Humidity
    00:00 +8°C° 0 mm 2 mps 700 mmHg 60%
    01:00 +7°C° 0 mm 2 mps 700 mmHg 59%
    02:00 +7°C° 0 mm 2 mps 700 mmHg 58%
    03:00 +7°C° 0 mm 2 mps 699 mmHg 58%
    04:00 +7°C° 0 mm 2 mps 699 mmHg 58%
    05:00 +6°C° 0 mm 2 mps 699 mmHg 60%
    06:00 +7°C° 0 mm 1 mps 700 mmHg 61%
    07:00 +7°C° 0 mm 1 mps 700 mmHg 62%
    08:00 +9°C° 0 mm 1 mps 700 mmHg 54%
    09:00 +12°C° 0 mm 1 mps 701 mmHg 46%
    10:00 +15°C° 0 mm 1 mps 701 mmHg 38%
    11:00 +16°C° 0 mm 1 mps 701 mmHg 36%
    12:00 +16°C° 0 mm 2 mps 701 mmHg 33%
    13:00 +17°C° 0 mm 2 mps 700 mmHg 31%
    14:00 +17°C° 0 mm 2 mps 701 mmHg 34%
    15:00 +16°C° 0 mm 1 mps 701 mmHg 37%
    16:00 +15°C° 0 mm 1 mps 701 mmHg 40%
    17:00 +14°C° 0 mm 1 mps 701 mmHg 43%
    18:00 +13°C° 0 mm 1 mps 701 mmHg 45%
    19:00 +12°C° 0 mm 1 mps 702 mmHg 48%
    20:00 +11°C° 0 mm 1 mps 702 mmHg 49%
    21:00 +10°C° 0 mm 0 mps 702 mmHg 49%
    22:00 +9°C° 0 mm 0 mps 702 mmHg 50%
    23:00 +9°C° 0 mm 0 mps 702 mmHg 51%
    Show more